Change the Weather History Date:

Monday, September 2, 2013

  Actual Average (KABI) Record (KABI)
Temperature  
Mean Temperature 88 °F 80 °F  
Max Temperature 98 °F 91 °F 105 °F (2000)
Min Temperature 79 °F 69 °F 55 °F (1915)
Degree Days  
Heating Degree Days 0 0  
Month to date heating degree days 0  
Since 1 July heating degree days 0  
Cooling Degree Days 23 15  
Month to date cooling degree days 30  
Year to date cooling degree days 1975  
Growing Degree Days 38 (Base 50)    
Moisture  
Dew Point 62 °F    
Average Humidity 46    
Maximum Humidity 63    
Minimum Humidity 27    
Precipitation  
Precipitation 0.00 in 0.08 in 2.35 in (1935)
Month to date precipitation 0.16  
Year to date precipitation 17.12  
Sea Level Pressure  
Sea Level Pressure 29.95 in    
Wind  
Wind Speed 7 mph (South)    
Max Wind Speed 18 mph    
Max Gust Speed 25 mph    
Visibility 10 miles    
Events Thunderstorm    
T = Trace of Precipitation, MM = Missing Value Source: NWS Daily Summary

Daily Weather History Graph

Daily Weather History Graph

Search for Another Location

Airport or City:

Trip Planner

Search our weather history database for the weather conditions in past years. The results will help you decide how hot, cold, wet, or windy it might be!

Date:

Astronomy

Sep. 02, 2013 Rise Set
Actual Time 7:11 AM CDT 7:58 PM CDT
Civil Twilight 6:46 AM CDT 8:23 PM CDT
Nautical Twilight 6:16 AM CDT 8:53 PM CDT
Astronomical Twilight 5:46 AM CDT 9:23 PM CDT
Moon 4:35 AM CDT (9/2) 6:09 PM CDT (9/2)
Length of Visible Light 13h 37m
Length of Day
12h 47m
Waning Crescent, 8% of the Moon is Illuminated
Sep 2
Waning Crescent
Sep 5
New
Sep 12
First Quarter
Sep 19
Full
Sep 26
Last Quarter

Hourly Weather History & Observations

Time (CDT) Temp. Heat Index Dew Point Humidity Pressure Visibility Wind Dir Wind Speed Gust Speed Precip Events Conditions
12:15 AM 87.8 °F 87.9 °F 61.2 °F 41% 29.88 in 10.0 mi SSW 5.8 mph - N/A   Clear
12:35 AM 85.3 °F 85.7 °F 61.9 °F 45% 29.89 in 10.0 mi West 5.8 mph - N/A   Clear
12:55 AM 85.3 °F 86.1 °F 62.8 °F 47% 29.88 in 10.0 mi SW 8.1 mph - N/A   Clear
1:15 AM 85.8 °F 86.6 °F 62.6 °F 46% 29.89 in 10.0 mi SW 4.6 mph - N/A   Scattered Clouds
1:35 AM 86.2 °F 86.8 °F 62.2 °F 45% 29.88 in 10.0 mi SW 3.5 mph - N/A   Mostly Cloudy
1:55 AM 86.4 °F 86.8 °F 62.1 °F 44% 29.88 in 10.0 mi SSW 3.5 mph - N/A   Overcast
2:15 AM 85.3 °F 85.9 °F 62.6 °F 46% 29.88 in 10.0 mi SSE 5.8 mph - N/A   Overcast
2:35 AM 84.7 °F 85.6 °F 62.8 °F 48% 29.89 in 10.0 mi SE 6.9 mph - N/A   Scattered Clouds
2:55 AM 84.2 °F 85.0 °F 62.8 °F 48% 29.90 in 10.0 mi ESE 13.8 mph 17.3 mph N/A   Clear
3:15 AM 84.4 °F 85.0 °F 62.1 °F 47% 29.91 in 10.0 mi SE 5.8 mph - N/A   Clear
3:35 AM 84.4 °F 85.0 °F 62.4 °F 47% 29.90 in 10.0 mi SSE 9.2 mph - N/A   Clear
3:55 AM 84.6 °F 85.6 °F 63.5 °F 49% 29.90 in 10.0 mi South 8.1 mph - N/A   Clear
4:15 AM 83.7 °F 84.9 °F 64.0 °F 51% 29.89 in 10.0 mi South 15.0 mph 20.7 mph N/A   Clear
4:35 AM 82.4 °F 84.1 °F 64.8 °F 55% 29.89 in 10.0 mi South 11.5 mph - N/A   Clear
4:55 AM 81.5 °F 83.4 °F 65.3 °F 58% 29.90 in 10.0 mi South 9.2 mph 20.7 mph N/A   Clear
5:15 AM 81.0 °F 82.9 °F 65.5 °F 59% 29.91 in 10.0 mi South 11.5 mph 19.6 mph N/A   Clear
5:35 AM 80.2 °F 82.1 °F 65.3 °F 60% 29.92 in 10.0 mi South 9.2 mph 16.1 mph N/A   Clear
5:55 AM 79.9 °F - 64.9 °F 60% 29.92 in 10.0 mi SSW 5.8 mph - N/A   Clear
6:15 AM 79.7 °F - 64.8 °F 60% 29.93 in 10.0 mi SSW 5.8 mph - N/A   Clear
6:35 AM 80.1 °F 81.7 °F 64.2 °F 58% 29.95 in 10.0 mi SSE 6.9 mph - N/A   Mostly Cloudy
6:55 AM 79.7 °F - 64.8 °F 60% 29.96 in 10.0 mi SE 11.5 mph 20.7 mph N/A Thunderstorm Mostly Cloudy
7:15 AM 79.5 °F - 65.8 °F 63% 29.97 in 10.0 mi SSE 11.5 mph 17.3 mph N/A Thunderstorm Scattered Clouds
7:35 AM 80.4 °F 82.3 °F 65.3 °F 60% 29.98 in 10.0 mi SSE 9.2 mph 19.6 mph N/A   Clear
7:55 AM 80.6 °F 82.4 °F 65.3 °F 59% 29.98 in 10.0 mi South 18.4 mph 23.0 mph N/A   Clear
8:15 AM 79.3 °F - 64.4 °F 60% 29.99 in 10.0 mi South 16.1 mph 25.3 mph N/A   Clear
8:35 AM 79.9 °F - 62.6 °F 55% 29.99 in 10.0 mi South 11.5 mph 20.7 mph N/A   Clear
8:55 AM 80.6 °F 81.8 °F 62.4 °F 54% 30.00 in 10.0 mi South 15.0 mph 24.2 mph N/A   Scattered Clouds
9:15 AM 82.6 °F 83.2 °F 61.7 °F 49% 30.00 in 10.0 mi SSW 11.5 mph - N/A   Scattered Clouds
9:35 AM 82.9 °F 83.5 °F 61.2 °F 48% 30.01 in 10.0 mi South 8.1 mph - N/A   Clear
9:55 AM 84.6 °F 84.8 °F 60.8 °F 45% 30.02 in 10.0 mi South 10.4 mph 17.3 mph N/A   Clear
10:15 AM 85.1 °F 85.2 °F 60.6 °F 44% 30.03 in 10.0 mi South 6.9 mph - N/A Thunderstorm Thunderstorm
10:35 AM 84.7 °F 84.8 °F 60.4 °F 44% 30.04 in 10.0 mi SSW 10.4 mph - N/A   Overcast
10:55 AM 84.9 °F 85.0 °F 60.6 °F 44% 30.04 in 10.0 mi SSW 6.9 mph - N/A   Overcast
11:15 AM 86.0 °F 85.9 °F 60.4 °F 42% 30.04 in 10.0 mi WSW 5.8 mph - N/A   Overcast
11:35 AM 84.9 °F 85.0 °F 60.4 °F 44% 30.05 in 10.0 mi SW 3.5 mph - N/A   Overcast
11:55 AM 85.5 °F 85.4 °F 60.8 °F 43% 30.05 in 10.0 mi WSW 3.5 mph - N/A   Overcast
12:15 PM 87.1 °F 87.0 °F 60.8 °F 41% 30.04 in 10.0 mi SW 5.8 mph - N/A   Mostly Cloudy
12:35 PM 88.5 °F 88.3 °F 60.4 °F 39% 30.03 in 10.0 mi West 5.8 mph - N/A   Scattered Clouds
12:55 PM 89.8 °F 89.1 °F 59.9 °F 36% 30.03 in 10.0 mi South 4.6 mph - N/A   Clear
1:15 PM 91.2 °F 90.8 °F 59.9 °F 35% 30.02 in 10.0 mi ESE 5.8 mph - N/A   Clear
1:35 PM 91.9 °F 91.2 °F 58.8 °F 33% 30.01 in 10.0 mi ESE 3.5 mph - N/A   Clear
1:55 PM 92.5 °F 91.6 °F 58.3 °F 32% 30.00 in 10.0 mi North 3.5 mph - N/A   Clear
2:15 PM 93.6 °F 93.1 °F 59.2 °F 32% 29.99 in 10.0 mi SW 3.5 mph - N/A   Clear
2:35 PM 93.7 °F 93.0 °F 59.0 °F 31% 29.98 in 10.0 mi Calm Calm - N/A   Clear
2:55 PM 94.5 °F 93.6 °F 58.8 °F 30% 29.97 in 10.0 mi NW 5.8 mph - N/A   Clear
3:15 PM 95.2 °F 94.3 °F 58.1 °F 29% 29.96 in 10.0 mi West 4.6 mph - N/A   Clear
3:35 PM 95.0 °F 94.0 °F 57.7 °F 29% 29.95 in 10.0 mi Calm Calm - N/A   Clear
3:55 PM 95.7 °F 95.1 °F 58.3 °F 29% 29.94 in 10.0 mi NW 5.8 mph - N/A   Clear
4:15 PM 95.4 °F 94.2 °F 57.7 °F 28% 29.93 in 10.0 mi NW 4.6 mph - N/A   Clear
4:35 PM 95.9 °F 94.9 °F 57.7 °F 28% 29.92 in 10.0 mi West 3.5 mph - N/A   Clear
4:55 PM 96.4 °F 95.7 °F 58.1 °F 28% 29.91 in 10.0 mi East 3.5 mph - N/A   Scattered Clouds
5:15 PM 97.2 °F 96.4 °F 58.1 °F 27% 29.91 in 10.0 mi Calm Calm - N/A   Mostly Cloudy
5:35 PM 96.8 °F 95.8 °F 57.7 °F 27% 29.91 in 10.0 mi East 3.5 mph - N/A   Scattered Clouds
5:55 PM 96.1 °F 96.0 °F 59.5 °F 30% 29.90 in 10.0 mi SE 9.2 mph - N/A   Scattered Clouds
6:15 PM 94.3 °F 94.1 °F 59.9 °F 32% 29.90 in 10.0 mi SE 11.5 mph 16.1 mph N/A   Mostly Cloudy
6:35 PM 93.0 °F 93.0 °F 60.4 °F 34% 29.90 in 10.0 mi SE 9.2 mph - N/A   Scattered Clouds
6:55 PM 91.9 °F 91.8 °F 60.6 °F 35% 29.90 in 10.0 mi SE 12.7 mph - N/A   Clear
7:15 PM 91.6 °F 91.3 °F 60.1 °F 35% 29.91 in 10.0 mi SE 11.5 mph - N/A   Clear
7:35 PM 90.1 °F 90.2 °F 61.2 °F 38% 29.91 in 10.0 mi SSE 6.9 mph - N/A   Clear
7:36 PM 89.6 °F 90.1 °F 62.6 °F 40% 29.91 in 10.0 mi SSE 5.8 mph - N/A   Clear
7:55 PM 88.9 °F 89.1 °F 61.9 °F 40% 29.92 in 10.0 mi SSE 5.8 mph - N/A   Clear
8:15 PM 87.4 °F 88.0 °F 62.6 °F 43% 29.92 in 10.0 mi SSE 4.6 mph - N/A   Clear
8:17 PM 87.8 °F 88.5 °F 62.6 °F 43% 29.92 in 10.0 mi SSE 5.8 mph - N/A   Clear
8:35 PM 86.2 °F 87.1 °F 63.1 °F 46% 29.93 in 10.0 mi South 6.9 mph - N/A   Clear
8:55 PM 84.9 °F 85.9 °F 63.5 °F 48% 29.94 in 10.0 mi South 8.1 mph - N/A   Clear
8:57 PM 84.2 °F 85.0 °F 62.6 °F 48% 29.94 in 10.0 mi SSE 6.9 mph - N/A   Clear
9:15 PM 84.2 °F 85.4 °F 63.5 °F 50% 29.94 in 10.0 mi South 6.9 mph - N/A   Clear
9:17 PM 84.2 °F 85.6 °F 64.4 °F 51% 29.94 in 10.0 mi South 5.8 mph - N/A   Clear
9:35 PM 83.5 °F 84.7 °F 63.9 °F 51% 29.95 in 10.0 mi South 5.8 mph - N/A   Clear
9:37 PM 82.4 °F 83.9 °F 64.4 °F 54% 29.95 in 10.0 mi SSW 4.6 mph - N/A   Clear
9:55 PM 82.4 °F 83.9 °F 64.4 °F 54% 29.96 in 10.0 mi SSW 4.6 mph - N/A   Clear
9:57 PM 82.4 °F 83.9 °F 64.4 °F 54% 29.96 in 10.0 mi South 4.6 mph - N/A   Clear
10:15 PM 82.0 °F 83.6 °F 64.4 °F 55% 29.96 in 10.0 mi South 3.5 mph - N/A   Clear
10:17 PM 82.4 °F 83.9 °F 64.4 °F 54% 29.96 in 10.0 mi South 3.5 mph - N/A   Clear
10:35 PM 81.5 °F 83.1 °F 64.4 °F 56% 29.96 in 10.0 mi South 4.6 mph - N/A   Clear
10:55 PM 80.8 °F 82.5 °F 64.6 °F 58% 29.96 in 10.0 mi SSW 4.6 mph - N/A   Clear
10:57 PM 80.6 °F 82.3 °F 64.4 °F 58% 29.96 in 10.0 mi SSW 4.6 mph - N/A   Clear
11:15 PM 80.4 °F 82.1 °F 64.6 °F 58% 29.97 in 10.0 mi SSW 3.5 mph - N/A   Clear
11:17 PM 80.6 °F 82.3 °F 64.4 °F 58% 29.97 in 10.0 mi Calm Calm - N/A   Clear
11:35 PM 80.1 °F 81.8 °F 64.8 °F 59% 29.97 in 10.0 mi Calm Calm - N/A   Clear
11:37 PM 80.6 °F 82.3 °F 64.4 °F 58% 29.97 in 10.0 mi Calm Calm - N/A   Clear
11:55 PM 80.1 °F 81.8 °F 64.6 °F 59% 29.97 in 10.0 mi South 3.5 mph - N/A   Clear
11:57 PM 80.6 °F 82.3 °F 64.4 °F 58% 29.97 in 10.0 mi SSW 3.5 mph - N/A   Clear